Weather in Schwäbisch Gmünd

Germany     48°48′09″N   9°48′09″E
temp.,
°C
wind,
m/s
gust,
m/s
humid.,
%
clouds,
%
prec.,
mm/h
press.,
hPa
HPBL,
m
9 may, sun
sun923:00+9se32889 0.0 101527
02:00+8se228772 0.0 101522
05:00+9se337735 0.0 101334
08:00+12se34725 0.0 1012124
11:00+18se465460 0.0 1011360
14:00+22se465564 0.0 1009528
17:00+23se34565 0.0 1008870
20:00+17ese34835 0.0 100780
10 may, mon
mon1023:00+13se229081 0.0 100726
02:00+13s2284100 0.0 100721
05:00+12se2274100 0.0 100526
08:00+14se227441 0.0 100765
11:00+20wsw3656100 0.0 1008705
14:00+20nw4464100 0.2 10101143
17:00+17nnw4573100 0.1 1010737
20:00+13nnw2595100 0.6 1009228
11 may, tue
tue1123:00+11nw229939 0.4 100961
02:00+11w3699100 0.8 1009426
05:00+10wnw3798100 0.3 1010603
08:00+10w1295100 0.3 1010348
11:00+11nne2395100 0.1 1008490
14:00+14ne2382100 0.1 1007662
17:00+15nnw2381100 0.2 1005599
20:00+12nw2598100 1.7 1006283
12 may, wed
wed1223:00+10wnw61198100 3.3 1007626
02:00+9w61299100 4.9 1008837
05:00+9w61299100 7.4 1009830
08:00+9w61399100 14.9 1010851
11:00+8w51199100 2.8 1012660
14:00+8w4897100 3.8 1012676
17:00+10wnw4692100 0.3 1011637
20:00+9wnw2797100 0.9 1011379
13 may, thu
thu1323:00+8wsw2399100 1.0 1012151
02:00+8sw1198100 1.3 101152
05:00+8w1195100 0.0 101028
08:00+9w1295100 0.1 1010123
11:00+11wnw128380 0.1 1010445
14:00+12nw3376100 0.9 1009825
17:00+13nw2367100 0.4 10081030
20:00+10wnw2690100 1.1 1009247